Hourly Data Report for June 13, 2021

ATIKOKAN (AUT)
ONTARIO
Current Station Operator: ECCC - MSC

48°45'40.000" N
91°37'41.000" W
389.30 m
6020LPQ
71747
WCH

Download Data

Hourly Data (June 2021)
Hourly Data Report for June 13, 2021
TIME
LST
Temp Definition
°C
Dew Point Definition
°C
Rel Hum Definition
%
Precip. Amount Definition
mm

Wind Dir Definition
10's deg

Wind Spd Definition
km/h
Visibility Definition
km
Stn Press Definition
kPa
Hmdx Definition


Wind Chill Definition


Weather Definition


00:00 10.6 9.7 95 0.0   0   96.82     LegendNANA
01:00 10.1 9.5 96 0.0   0   96.82     LegendNANA
02:00 9.4 9.0 97 0.0 5 1   96.83     LegendNANA
03:00 8.9 8.6 98 0.0 0 1   96.82     LegendNANA
04:00 8.8 8.5 98 0.0 0 1   96.85     LegendNANA
05:00 9.3 9.1 99 0.0   0   96.86     LegendNANA
06:00 12.3 12.0 98 0.0 6 1   96.88     LegendNANA
07:00 16.5 12.0 75 0.0 27 5   96.95     LegendNANA
08:00 15.4 12.8 84 0.0 19 5   96.91     LegendNANA
09:00 15.3 12.7 85 0.2 34 12   97.07     LegendNANA
10:00 14.8 11.4 80 0.1 35 10   97.21     LegendNANA
11:00 13.1 12.0 93 2.0 29 2   97.20     LegendNANA
12:00 15.1 12.8 86 0.7 12 5   96.94     LegendNANA
13:00 19.6 13.8 69 0.0 16 5   96.86     LegendNANA
14:00 20.8 12.6 60 0.0 24 9   96.86     LegendNANA
15:00 21.0 13.4 62 0.0 24 12   96.80     LegendNANA
16:00 22.1 12.9 56 0.0 27 12   96.74 25   LegendNANA
17:00 13.6 10.2 80 7.9 31 17   96.90     LegendNANA
18:00 13.2 11.3 88 2.5 27 7   96.90     LegendNANA
19:00 13.9 12.2 90 0.0 24 5   96.89     LegendNANA
20:00 13.9 12.8 93 0.0 28 3   96.87     LegendNANA
21:00 12.1 11.5 96 0.0 2 3   96.95     LegendNANA
22:00 11.0 10.6 97 0.0 0 1   96.94     LegendNANA
23:00 10.1 9.8 98 0.0   0   96.92     LegendNANA

Notes on Data Quality.

Legend

  • E = Estimated
  • M = Missing
  • NA = Not Available*
  • [empty] = Indicates an unobserved value
Date modified: